Back to catalog

STARLINK-36069

AliveCommunicationsVLEO
NORAD 66806·PAYLOAD·🇺🇸 United States

Launched Dec 1, 2025 from Cape Canaveral Space Force Station

Loading…

Next Passes (next 24 hours)

TLE

FreshSource: CelesTrak SupGP

Epoch: Sep 14, 2026, 15:58 UTC

1 66806C 25278R   26257.66576389  .00018895  00000+0  68509-3 0  2570
2 66806  43.0004 127.4756 0001481 260.7350 203.6682 15.27535548    11

Track STARLINK-36069 in real time with AllMySat

Download on the App Store